Satellite: NOAA-18
Catalog number: 28654
Epoch time:      08128.35463111
Element set:     416
Inclination:      098.8660 deg
RA of node:       069.7911 deg
Eccentricity:    0.0015418
Arg of perigee:   070.1978 deg
Mean anomaly:     290.0846 deg
Mean motion:   14.11158673 rev/day
Decay rate:      -2.42e-06 rev/day^2
Epoch rev:           15271
Checksum:              310

/EX
SB KEPS @ AMSAT  $ORB08128.M
Orbital Elements  08128.MISC

HR AMSAT ORBITAL ELEMENTS FOR MANNED AND MISCELLANEOUS SATELLITES
FROM WA5QGD FORT WORTH,TX May 7, 2008
Send Subscribe/unsubscribe to KEPS at 
http://www.amsat.org/mailman/listinfo/keps
BID: ORB08128.M
TO ALL RADIO AMATEURS BT

Satellite: HUBBLE
Catalog number: 20580
Epoch time:      08127.50330980
Element set:     129
Inclination:      028.4697 deg
RA of node:       235.0895 deg
Eccentricity:    0.0003648
Arg of perigee:   296.6025 deg
Mean anomaly:     063.4189 deg
Mean motion:   15.00375124 rev/day
Decay rate:       3.63e-06 rev/day^2
Epoch rev:           78871
Checksum:              303

Satellite: UARS
Catalog number: 21701
Epoch time:      08128.57502410
Element set:     358
Inclination:      056.9742 deg
RA of node:       338.5651 deg
Eccentricity:    0.0090859
Arg of perigee:   102.3893 deg
Mean anomaly:     258.7358 deg
Mean motion:   15.51649378 rev/day
Decay rate:      6.738e-05 rev/day^2
Epoch rev:           91619
Checksum:              336

Satellite: PO-34
Catalog number: 25520
Epoch time:      08127.95264441
Element set:    0988
Inclination:      028.4588 deg
RA of node:       094.8357 deg
Eccentricity:    0.0005563
Arg of perigee:   193.8015 deg
Mean anomaly:     166.2426 deg
Mean motion:   15.17186025 rev/day
Decay rate:       4.77e-06 rev/day^2
Epoch rev:           52689
Checksum:              337

Satellite: ISS
Catalog number: 25544
Epoch time:      08128.54347067
Element set:     433
Inclination:      051.6413 deg
RA of node:       225.8681 deg
Eccentricity:    0.0006638
Arg of perigee:   178.6243 deg
Mean anomaly:     300.5860 deg
Mean motion:   15.76130244 rev/day
Decay rate:     1.7179e-04 rev/day^2
Epoch rev:           54211
Checksum:              291

Satellite: OO-38
Catalog number: 26063
Epoch time:      08128.31737591
Element set:     204
Inclination:      100.1933 deg
RA of node:       195.5384 deg
Eccentricity:    0.0036763
Arg of perigee:   325.2788 deg
Mean anomaly:     034.5991 deg
Mean motion:   14.35834053 rev/day
Decay rate:       -3.3e-07 rev/day^2
Epoch rev:           43370
Checksum:              303

Satellite: UWE-1
Catalog number: 28892
Epoch time:      08127.74754259
Element set:      40
Inclination:      098.1013 deg
RA of node:       022.3710 deg
Eccentricity:    0.0017365
Arg of perigee:   175.0574 deg
Mean anomaly:     185.0814 deg
Mean motion:   14.59623593 rev/day
Decay rate:       1.12e-06 rev/day^2
Epoch rev:           13455
Checksum:              289

Satellite: CO-58
Catalog number: 28895
Epoch time:      08127.71660357
Element set:    0015
Inclination:      098.1042 deg
RA of node:       022.6822 deg
Eccentricity:    0.0017735
Arg of perigee:   175.1886 deg
Mean anomaly:     184.9492 deg
Mean motion:   14.59664068 rev/day
Decay rate:        7.4e-07 rev/day^2
Epoch rev:           13443
Checksum:              332

Satellite: NCUBE2
Catalog number: 28897
Epoch time:      08127.20617254
Element set:    0544
Inclination:      098.1008 deg
RA of node:       022.1148 deg
Eccentricity:    0.0016842
Arg of perigee:   178.2933 deg
Mean anomaly:     181.8325 deg
Mean motion:   14.59834144 rev/day
Decay rate:       1.30e-06 rev/day^2
Epoch rev:           12664
Checksum:              295

Satellite: FCAL
Catalog number: 29667
Epoch time:      08128.55157881
Element set:     935
Inclination:      051.6222 deg
RA of node:       164.3946 deg
Eccentricity:    0.0001657
Arg of perigee:   003.4110 deg
Mean anomaly:     356.6912 deg
Mean motion:   16.21525018 rev/day
Decay rate:    2.74627e-03 rev/day^2
Epoch rev:            8001
Checksum:              291

Satellite: FALCON
Catalog number: 30776
Epoch time:      08127.92397847
Element set:    0308
Inclination:      035.4334 deg
RA of node:       043.7400 deg
Eccentricity:    0.0001682
Arg of perigee:   351.6938 deg
Mean anomaly:     008.3754 deg
Mean motion:   15.02976193 rev/day
Decay rate:       4.80e-06 rev/day^2
Epoch rev:           06393
Checksum:              305

Satellite: MAST
Catalog number: 31126
Epoch time:      08127.72869422
Element set:    0320
Inclination:      098.0414 deg
RA of node:       193.8138 deg
Eccentricity:    0.0095919
Arg of perigee:   100.3673 deg
Mean anomaly:     260.8366 deg
Mean motion:   14.53420044 rev/day
Decay rate:       -9.1e-07 rev/day^2
Epoch rev:           05599
Checksum:              295

Satellite: CAPE1
Catalog number: 31130
Epoch time:      08127.77565398
Element set:    0300
Inclination:      098.0429 deg
RA of node:       192.9658 deg
Eccentricity:    0.0103995
Arg of perigee:   102.8233 deg
Mean anomaly:     258.4597 deg
Mean motion:   14.51959971 rev/day
Decay rate:       1.36e-06 rev/day^2
Epoch rev:           05571
Checksum:              326

/EX



_______________________________________________
Via the Keps mailing list courtesy of AMSAT-NA
http://amsat.org/mailman/listinfo/keps

--- ViaMAIL!/WC v1.60d
 * Origin: Chowdanet (401-724-4410) telnet://chowdanet.com  (1:323/120)